Location: Avully
(45.9633°N, 6.0228°E)
Time: 19:46:27
(UTC+00:00)

Cosmos 1400 Rocket - Pass Details

Date: 23 May 2024
Orbit: 501 x 544 km, 81.2° (Epoch: 14 June)

Event Time Altitude Azimuth Distance (km) Brightness Sun altitude
Exits shadow 00:32:29 54° 274° (W) 665 3.1 -22.0°
Maximum altitude 00:32:38 55° 284° (WNW) 662 3.1 -22.0°
Drops below altitude 10° 00:36:34 10° 2° (N) 1,817 6.5 -21.8°
Sets 00:38:46 0° 7° (N) 2,709 7.8 -21.7°
